Location: Krakow
(50.0830°N, 19.9170°E)
Time: 11:37:20
(UTC+01:00)

Transit 2A - Pass Details

Date: 13 February 2023
Orbit: 591 x 964 km, 66.7° (Epoch: 21 March)

Event Time Altitude Azimuth Distance (km) Brightness Sun altitude
Rises 13:22:30 0° 171° (S) 3,022 10.0 23.7°
Reaches altitude 10° 13:25:11 10° 156° (SSE) 2,174 9.1 23.5°
Maximum altitude 13:28:54 22° 107° (ESE) 1,618 7.8 23.3°
Drops below altitude 10° 13:32:55 10° 59° (ENE) 2,373 8.1 23.0°
Sets 13:35:58 0° 45° (NE) 3,383 8.8 22.8°
